Latest Coastal Weather Observations for Coconut Island

IDQ60701

Issued at 11:35 pm EST Friday 24 October 2014 (issued every 10 minutes, with the page automatically refreshed every 10 minutes)

About coastal observations | Map of coastal stations | Coastal observations for QLD | Marine services | Other Formats
Station Details ID: 027054 Name: COCONUT ISLAND Lat: -10.05 Lon: 143.07 Height: 3.5 m
Data from the previous 72 hours. | See also: Recent months at Coconut Island
Date/Time
EST
Temp

°C
Wind Pressure Rain
since 9am
mm
Weather Cloud Vis
km
Sea
Height
m
Swell
Dir
 
Speed
knots
Gust
knots
hPa Trend Height
m
Period
s
Dir
24/11:30pm 25.3 SE 5 12 1014.3 - 0.0 - - - - - - -
24/11:00pm 25.3 SE 6 13 1014.5 - 0.0 - - - - - - -
24/10:30pm 25.3 SE 6 10 1014.4 - 0.0 - - - - - - -
24/10:00pm 25.3 SE 6 11 1014.3 - 0.0 - - - - - - -
24/09:30pm 25.3 SE 7 12 1014.2 - 0.0 - - - - - - -
24/09:00pm 25.6 SE 6 11 1013.9 - 0.0 - - - - - - -
24/08:30pm 25.6 SE 5 9 1013.5 - 0.0 - - - - - - -
24/08:00pm 25.8 SE 6 10 1013.2 - 0.0 - - - - - - -
24/07:30pm 25.6 SE 5 10 1012.8 - 0.0 - - - - - - -
24/07:00pm 25.7 SE 5 9 1012.5 - 0.0 - - - - - - -
24/06:30pm 26.2 SE 5 9 1012.4 - 0.0 - - - - - - -
24/06:00pm 27.0 SE 4 8 1012.2 - 0.0 - - - - - - -
24/05:30pm 27.7 SSE 5 8 1011.6 - 0.0 - - - - - - -
24/05:00pm 28.4 SE 4 8 1011.4 - 0.0 - - - - - - -
24/04:30pm 29.3 SE 5 8 1011.3 - 0.0 - - - - - - -
24/04:00pm 29.3 SSE 5 7 1011.4 - 0.0 - - - - - - -
24/03:30pm 29.7 SSE 4 7 1011.5 - 0.0 - - - - - - -
24/03:00pm 30.3 SSE 5 10 1011.7 - 0.0 - - - - - - -
24/02:30pm 30.4 SSE 5 9 1011.6 - 0.0 - - - - - - -
24/02:00pm 30.8 SSE 5 7 1011.8 - 0.0 - - - - - - -
24/01:30pm 31.5 SE 5 8 1012.1 - 0.0 - - - - - - -
24/01:00pm 31.2 SE 4 10 1012.7 - 0.0 - - - - - - -
24/12:30pm 30.8 SE 4 8 1013.3 - 0.0 - - - - - - -
24/12:00pm 30.7 SE 5 12 1013.8 - 0.0 - - - - - - -
24/11:30am 30.6 ESE 6 12 1014.3 - 0.0 - - - - - - -
24/11:00am 29.9 SE 5 8 1014.6 - 0.0 - - - - - - -
24/10:30am 30.2 SE 6 12 1014.6 - 0.0 - - - - - - -
24/10:00am 29.4 SE 5 10 1015.0 - 0.0 - - - - - - -
24/09:30am 28.9 ESE 6 13 1015.3 - 0.0 - - - - - - -
24/09:00am 28.7 ESE 8 13 1015.2 - 0.0 - - - - - - -
24/08:30am 28.0 ESE 6 13 1015.1 - 0.0 - - - - - - -
24/08:00am 26.8 SE 6 12 1014.9 - 0.0 - - - - - - -
24/07:30am 25.5 SE 5 10 1014.5 - 0.0 - - - - - - -
24/07:00am 24.9 SE 5 9 1014.3 - 0.0 - - - - - - -
24/06:30am 24.4 SE 5 10 1013.9 - 0.0 - - - - - - -
24/06:00am 24.2 SE 5 8 1013.6 - 0.0 - - - - - - -
24/05:30am 24.2 SE 6 11 1013.2 - 0.0 - - - - - - -
24/05:00am 24.4 SE 5 8 1013.0 - 0.0 - - - - - - -
24/04:30am 24.5 SE 6 13 1012.6 - 0.0 - - - - - - -
24/04:00am 24.4 SE 6 13 1012.3 - 0.0 - - - - - - -
24/03:30am 24.6 SE 5 9 1012.1 - 0.0 - - - - - - -
24/03:00am 24.8 SE 6 13 1012.1 - 0.0 - - - - - - -
24/02:30am 24.9 SE 6 14 1012.4 - 0.0 - - - - - - -
24/02:00am 25.0 SE 5 10 1012.6 - 0.0 - - - - - - -
24/01:30am 25.1 SE 6 13 1012.9 - 0.0 - - - - - - -
24/01:00am 25.2 SE 6 11 1013.2 - 0.0 - - - - - - -
24/12:30am 25.1 SE 6 11 1013.3 - 0.0 - - - - - - -
24/12:00am 25.2 SE 6 13 1013.6 - 0.0 - - - - - - -
 
Date/Time
EST
Temp

°C
Wind Pressure Rain
since 9am
mm
Weather Cloud Vis
km
Sea
Height
m
Swell
Dir
 
Speed
knots
Gust
knots
hPa Trend Height
m
Period
s
Dir
23/11:30pm 25.2 SE 6 11 1014.0 - 0.0 - - - - - - -
23/11:00pm 25.2 SE 6 11 1014.3 - 0.0 - - - - - - -
23/10:30pm 25.3 SE 6 11 1014.4 - 0.0 - - - - - - -
23/10:00pm 25.2 SE 6 12 1014.3 - 0.0 - - - - - - -
23/09:30pm 25.3 SSE 7 12 1013.9 - 0.0 - - - - - - -
23/09:00pm 25.4 SE 6 11 1013.8 - 0.0 - - - - - - -
23/08:30pm 25.4 SSE 7 10 1013.5 - 0.0 - - - - - - -
23/08:00pm 25.6 SSE 7 10 1013.2 - 0.0 - - - - - - -
23/07:30pm 25.8 SSE 8 11 1012.9 - 0.0 - - - - - - -
23/07:00pm 26.1 SSE 8 11 1012.7 - 0.0 - - - - - - -
23/06:30pm 26.1 SSE 7 10 1012.5 - 0.0 - - - - - - -
23/06:00pm 26.4 SSE 7 11 1012.1 - 0.0 - - - - - - -
23/05:30pm 27.0 SSE 7 10 1011.6 - 0.0 - - - - - - -
23/05:00pm 27.2 SSE 8 12 1011.4 - 0.0 - - - - - - -
23/04:30pm 28.2 SSE 7 10 1011.0 - 0.0 - - - - - - -
23/04:00pm 29.1 SSE 7 9 1010.9 - 0.0 - - - - - - -
23/03:30pm 29.7 SSE 6 9 1010.9 - 0.0 - - - - - - -
23/03:00pm 30.5 SSE 6 10 1011.0 - 0.0 - - - - - - -
23/02:30pm 30.8 SSE 6 8 1011.2 - 0.0 - - - - - - -
23/02:00pm 30.3 SSE 5 8 1011.5 - 0.0 - - - - - - -
23/01:30pm 30.8 SSE 6 9 1011.9 - 0.0 - - - - - - -
23/01:00pm 31.0 SE 5 11 1012.5 - 0.0 - - - - - - -
23/12:30pm 31.0 SSE 6 10 1012.8 - 0.0 - - - - - - -
23/12:00pm 31.2 SSE 6 10 1013.2 - 0.0 - - - - - - -
23/11:30am 30.7 SE 6 10 1013.5 - 0.0 - - - - - - -
23/11:00am 30.1 SE 6 10 1013.8 - 0.0 - - - - - - -
23/10:30am 29.5 SE 5 12 1014.1 - 0.0 - - - - - - -
23/10:00am 29.9 SSE 6 9 1014.4 - 0.0 - - - - - - -
23/09:30am 29.4 SE 5 8 1014.6 - 0.0 - - - - - - -
23/09:00am 29.2 SSE 6 8 1014.4 - 0.0 - - - - - - -
23/08:30am 28.6 SSE 6 10 1014.2 - 0.0 - - - - - - -
23/08:00am 27.4 SSE 7 10 1014.1 - 0.0 - - - - - - -
23/07:30am 26.1 SSE 7 9 1013.6 - 0.0 - - - - - - -
23/07:00am 25.4 SSE 7 9 1013.2 - 0.0 - - - - - - -
23/06:30am 25.2 SSE 7 10 1012.9 - 0.0 - - - - - - -
23/06:00am 24.9 SSE 5 8 1012.6 - 0.0 - - - - - - -
23/05:30am 25.0 SSE 7 10 1012.2 - 0.0 - - - - - - -
23/05:00am 25.1 SSE 6 8 1012.0 - 0.0 - - - - - - -
23/04:30am 25.1 SE 6 14 1011.8 - 0.0 - - - - - - -
23/04:00am 25.1 SE 6 10 1011.8 - 0.0 - - - - - - -
23/03:30am 25.1 SE 6 10 1011.8 - 0.0 - - - - - - -
23/03:00am 25.3 SE 6 10 1011.8 - 0.0 - - - - - - -
23/02:30am 25.2 SE 6 14 1011.9 - 0.0 - - - - - - -
23/02:00am 25.2 SE 6 11 1012.2 - 0.0 - - - - - - -
23/01:30am 25.3 SE 7 15 1012.5 - 0.0 - - - - - - -
23/01:00am 25.4 SE 6 14 1012.9 - 0.0 - - - - - - -
23/12:30am 25.6 SE 7 14 1013.4 - 0.0 - - - - - - -
23/12:00am 25.5 SE 7 12 1013.7 - 0.0 - - - - - - -
 
Date/Time
EST
Temp

°C
Wind Pressure Rain
since 9am
mm
Weather Cloud Vis
km
Sea
Height
m
Swell
Dir
 
Speed
knots
Gust
knots
hPa Trend Height
m
Period
s
Dir
22/11:30pm 25.6 SE 8 14 1014.1 - 0.0 - - - - - - -
22/11:00pm 25.6 SE 7 16 1014.5 - 0.0 - - - - - - -
22/10:30pm 25.7 SE 6 13 1014.6 - 0.0 - - - - - - -
22/10:00pm 25.8 SE 7 13 1014.4 - 0.0 - - - - - - -
22/09:30pm 25.9 SE 7 17 1014.3 - 0.0 - - - - - - -
22/09:00pm 26.0 SE 7 11 1014.0 - 0.0 - - - - - - -
22/08:30pm 26.2 SSE 7 12 1013.7 - 0.0 - - - - - - -
22/08:00pm 26.3 SSE 8 11 1013.5 - 0.0 - - - - - - -
22/07:30pm 26.3 SSE 8 10 1013.3 - 0.0 - - - - - - -
22/07:00pm 26.4 SSE 9 12 1012.9 - 0.0 - - - - - - -
22/06:30pm 26.7 SSE 8 11 1012.7 - 0.0 - - - - - - -
22/06:00pm 27.0 SSE 8 12 1012.3 - 0.0 - - - - - - -
22/05:30pm 27.6 SSE 8 11 1011.9 - 0.0 - - - - - - -
22/05:00pm 28.3 SSE 7 11 1011.8 - 0.0 - - - - - - -
22/04:30pm 29.1 SSE 6 8 1011.5 - 0.0 - - - - - - -
22/04:00pm 29.8 SSE 7 9 1011.5 - 0.0 - - - - - - -
22/03:30pm 30.0 SSE 6 8 1011.7 - 0.0 - - - - - - -
22/03:00pm 30.1 SSE 7 10 1011.7 - 0.0 - - - - - - -
22/02:30pm 30.3 SSE 9 13 1011.7 - 0.0 - - - - - - -
22/02:00pm 30.7 SSE 7 10 1012.2 - 0.0 - - - - - - -
22/01:30pm 30.2 SSE 7 10 1012.6 - 0.0 - - - - - - -
22/01:00pm 31.1 SSE 7 9 1013.1 - 0.0 - - - - - - -
22/12:30pm 31.4 SSE 6 9 1013.5 - 0.0 - - - - - - -
22/12:00pm 31.4 SSE 6 10 1013.9 - 0.0 - - - - - - -
22/11:30am 30.9 SSE 8 11 1014.0 - 0.0 - - - - - - -
22/11:00am 30.8 SSE 8 11 1014.1 - 0.0 - - - - - - -
22/10:30am 30.6 SSE 9 13 1014.2 - 0.0 - - - - - - -
22/10:00am 30.1 SSE 7 11 1014.5 - 0.0 - - - - - - -
22/09:30am 30.1 SSE 8 10 1014.4 - 0.0 - - - - - - -
22/09:00am 28.8 SSE 7 11 1014.4 - 0.2 - - - - - - -
22/08:30am 28.8 SSE 6 8 1014.4 - 0.2 - - - - - - -
22/08:00am 27.4 SE 5 9 1014.2 - 0.2 - - - - - - -
22/07:30am 26.3 SE 6 9 1014.0 - 0.2 - - - - - - -
22/07:00am 25.3 SE 6 13 1013.7 - 0.2 - - - - - - -
22/06:30am 25.0 SE 6 12 1013.1 - 0.2 - - - - - - -
22/06:00am 24.9 SSE 6 8 1012.8 - 0.2 - - - - - - -
22/05:30am 25.0 SSE 7 12 1012.5 - 0.2 - - - - - - -
22/05:00am 25.0 SSE 7 11 1012.1 - 0.2 - - - - - - -
22/04:30am 25.1 SE 7 14 1011.9 - 0.2 - - - - - - -
22/04:00am 25.1 SE 6 12 1012.0 - 0.2 - - - - - - -
22/03:30am 25.0 SE 6 11 1012.1 - 0.2 - - - - - - -
22/03:00am 25.0 SE 6 12 1012.1 - 0.2 - - - - - - -
22/02:30am 25.4 SSE 7 12 1012.2 - 0.2 - - - - - - -
22/02:00am 25.5 SSE 8 13 1012.6 - 0.2 - - - - - - -
22/01:30am 25.4 SE 6 11 1012.9 - 0.2 - - - - - - -
22/01:00am 25.6 SE 8 13 1013.3 - 0.2 - - - - - - -
22/12:30am 25.9 SE 9 13 1013.6 - 0.2 - - - - - - -
22/12:00am 25.8 SSE 9 16 1013.9 - 0.2 - - - - - - -

Other Formats:

Comma delimited format used in spreadsheet applications
http://www.bom.gov.au/fwo/IDQ60701/IDQ60701.94182.axf

JavaScript Object Notation format (JSON) in row-major order
http://www.bom.gov.au/fwo/IDQ60701/IDQ60701.94182.json